Theta_e
317 317 317 317 316 314 314 312 312 311 310 314 312 317 318 312 309 322 325 322 324 314 305 309 307 303 306 311 308 309 306 302 305 305 306 304 305 304 304 303 301 304 303 302 301 302 300 300 298 301 302 302 304 305 306 307 306 306 301 306 304 317 301 296 298 301 304 306 308 308 307 306 302 301 301 300 297 299 297 297 302 297 301 295 298 301 307
317 317 317 317 316 314 313 312 312 311 310 308 310 315 318 313 313 316 325 326 319 311 301 300 303 306 308 308 306 309 306 305 303 304 305 304 303 303 303 304 304 303 305 303 301 302 297 302 301 300 303 300 306 307 306 307 303 303 300 301 304 300 301 299 294 292 294 299 303 305 305 304 299 297 299 301 301 302 301 300 301 295 299 301 300 297 301
316 316 317 317 315 314 313 312 312 312 311 310 311 313 317 315 316 317 320 321 316 306 307 303 304 307 305 305 304 304 304 307 305 305 303 306 304 303 303 305 304 304 304 303 304 304 302 302 303 303 302 304 309 307 306 306 303 307 313 315 307 302 303 299 291 289 288 289 289 292 295 298 301 303 302 304 302 303 300 293 296 288 299 302 300 303 313
316 317 317 316 316 314 313 312 312 311 311 309 312 318 317 313 307 313 314 316 314 310 311 307 303 304 309 304 304 304 302 305 307 306 304 306 305 304 305 306 304 303 303 302 302 302 303 302 302 305 303 302 305 305 307 306 307 315 317 318 308 304 305 303 300 294 292 295 298 304 306 301 297 301 302 301 303 306 304 301 297 292 302 305 308 312 312
316 317 317 317 316 314 313 311 311 311 310 310 310 318 315 315 307 308 305 315 308 305 307 305 304 303 307 305 305 302 303 304 304 305 300 305 304 305 304 304 302 301 300 301 301 302 302 307 303 303 301 304 303 306 306 306 313 322 318 315 305 305 299 300 304 305 301 302 302 303 305 300 301 301 301 303 304 308 306 304 301 306 304 299 311 314 313
317 317 318 317 315 314 313 311 311 310 309 309 312 317 324 307 315 312 315 303 300 304 305 306 305 306 304 306 306 303 302 303 301 302 305 305 305 299 304 302 303 304 302 302 302 301 302 302 300 302 304 303 304 302 305 304 316 317 307 309 304 302 298 300 300 299 301 302 302 304 303 303 302 302 304 306 309 309 306 307 312 312 306 302 311 313 312
316 317 318 318 316 315 314 312 310 309 308 309 316 321 322 315 316 316 320 310 310 310 309 309 307 306 308 307 306 302 303 302 304 305 303 305 302 303 300 303 304 304 305 303 304 306 299 300 307 306 302 302 301 300 303 306 307 305 304 304 307 303 298 300 300 299 300 301 303 304 303 302 302 304 307 307 308 307 308 309 313 313 311 313 314 314 313
316 316 317 318 317 316 314 312 311 310 308 315 319 328 316 314 313 314 319 316 312 312 310 308 307 305 308 303 306 303 303 302 304 306 304 303 304 303 300 303 305 305 306 305 303 304 306 306 306 306 304 303 304 301 306 301 305 303 302 304 308 300 300 304 301 297 298 301 303 303 302 302 303 304 306 308 309 308 308 309 311 314 312 313 311 311 312
316 316 317 318 317 316 314 313 312 310 309 320 321 324 324 322 322 323 317 311 312 312 310 308 306 309 306 304 304 305 303 303 305 304 306 303 301 304 303 304 304 306 304 306 305 307 307 310 309 309 307 303 306 302 307 306 305 304 304 304 308 305 300 302 301 294 295 300 301 301 303 304 303 303 303 307 307 305 307 306 309 308 308 311 311 307 308
316 316 317 318 317 316 314 313 312 310 310 313 315 317 322 325 325 325 320 312 318 309 309 307 306 302 307 305 306 305 305 305 306 303 308 306 306 305 305 304 302 305 305 306 306 308 307 307 310 311 306 306 306 307 306 304 306 301 301 305 302 303 300 296 296 294 294 299 301 300 301 300 299 298 303 307 308 309 310 311 312 311 312 308 305 306 314
315 316 316 317 318 317 316 314 313 311 312 310 309 311 316 318 319 319 321 311 312 310 308 306 304 308 306 307 305 307 306 306 307 305 305 306 304 306 305 303 301 305 305 307 311 311 310 308 308 307 306 305 304 304 304 306 305 304 305 305 307 305 304 298 303 294 293 299 300 301 297 291 294 305 310 310 307 307 306 306 309 311 313 310 313 313 317
315 315 316 317 318 317 316 315 313 312 311 311 312 312 317 321 321 321 318 312 309 311 310 307 305 306 305 307 307 306 307 306 305 309 304 307 306 306 306 306 308 307 310 313 313 311 311 310 307 306 304 303 303 303 305 303 303 311 305 301 304 305 301 298 301 295 294 297 298 293 289 294 306 309 309 312 312 311 309 309 310 311 313 315 313 314 316
315 315 316 317 318 318 316 315 314 312 311 311 312 310 316 319 318 318 317 316 309 311 307 307 308 307 308 309 306 306 308 308 308 308 306 306 304 306 307 307 306 305 310 307 308 308 304 303 303 305 303 303 303 304 303 303 302 306 304 305 301 301 302 301 300 298 297 294 293 286 292 305 308 309 310 312 313 312 311 307 309 311 311 312 312 313 316
316 315 315 316 318 318 317 316 314 314 312 311 310 312 316 320 320 317 319 316 313 312 310 308 309 307 308 307 309 307 308 308 307 310 304 308 304 307 307 308 308 310 309 310 307 307 300 302 298 301 300 302 305 302 302 304 304 306 304 306 305 303 302 301 295 303 293 294 292 296 304 304 305 305 307 306 303 306 305 300 304 311 312 312 312 314 316
315 316 315 316 317 318 318 317 315 314 313 310 312 314 318 321 325 324 321 321 314 315 313 307 308 307 308 308 308 308 309 310 307 308 309 308 306 310 310 310 311 310 312 307 305 308 301 302 298 296 296 295 291 297 305 299 307 307 305 305 307 308 299 302 295 296 298 293 291 293 292 291 298 308 315 312 311 314 314 308 303 311 313 314 313 313 316
315 315 315 315 316 317 318 317 316 314 313 310 312 314 316 321 327 328 323 320 318 309 314 316 311 309 308 308 308 308 307 309 309 308 308 313 307 311 310 310 311 311 308 306 312 306 306 300 297 296 293 296 300 299 300 307 302 306 305 306 305 306 306 307 297 296 296 294 290 290 290 294 303 306 308 311 312 310 314 306 299 308 313 315 315 314 316
315 315 315 315 315 317 317 317 316 314 313 310 309 311 314 325 328 325 322 323 324 314 318 315 313 313 311 311 311 309 312 308 312 307 304 308 309 307 309 313 311 311 311 307 308 303 300 301 302 300 301 303 299 298 304 301 302 302 305 308 303 302 302 302 297 297 297 295 292 292 297 297 305 306 309 312 313 310 305 292 295 308 314 314 315 314 315
315 315 315 315 315 316 317 317 316 314 313 312 310 310 313 320 323 328 325 321 318 316 315 315 312 312 311 314 312 311 313 316 315 314 309 311 313 310 309 309 307 309 311 306 308 302 299 300 298 298 296 305 307 302 294 302 299 298 298 302 300 300 300 299 296 296 296 297 294 297 299 307 307 308 313 314 316 309 296 289 300 312 314 315 315 315 316
315 315 315 315 315 317 317 317 316 315 314 310 311 314 317 324 329 331 326 323 322 314 316 316 316 313 316 318 315 315 314 317 314 311 308 306 312 312 311 310 312 308 313 306 307 303 300 304 307 303 299 302 307 298 303 299 299 304 304 298 299 300 300 299 299 294 294 295 294 295 299 305 309 310 313 315 311 297 294 305 315 315 314 315 316 316 317
315 315 315 315 316 317 317 317 316 314 314 311 310 309 313 318 323 326 325 318 321 320 322 315 314 311 315 312 314 316 311 312 314 310 307 305 319 313 309 303 309 308 310 309 303 307 302 299 302 306 300 300 303 309 301 302 307 303 302 304 298 298 296 295 295 297 299 298 294 289 286 303 312 312 310 313 303 303 311 315 314 316 314 315 315 317 319
315 315 315 315 316 316 317 317 316 315 314 313 310 311 314 325 329 336 335 327 320 318 319 319 319 316 316 314 314 313 313 310 310 308 313 312 321 313 294 304 308 310 305 308 301 300 304 300 303 302 305 303 305 305 298 300 304 309 307 302 303 308 296 296 297 301 293 293 291 290 300 307 314 311 303 309 311 315 316 314 311 314 314 315 314 317 320
314 315 315 315 316 316 316 316 316 314 314 313 311 314 315 324 326 330 333 333 324 320 324 324 322 320 317 318 316 318 313 313 314 318 314 311 321 314 313 314 317 312 312 313 309 308 307 306 307 302 300 302 308 300 303 296 294 302 311 307 295 307 303 301 294 303 299 297 300 305 311 311 314 313 312 313 315 317 316 314 313 312 313 316 314 316 322
314 314 315 315 316 316 316 316 315 315 313 314 313 312 312 316 320 327 327 326 331 330 330 325 323 321 318 318 319 318 316 317 318 325 325 317 314 316 312 311 312 319 319 319 310 310 309 306 303 304 302 304 303 301 302 298 297 302 299 307 306 310 312 311 306 302 308 309 310 311 310 310 311 313 315 314 315 317 317 316 314 315 316 315 314 317 322
314 314 314 315 316 316 316 316 315 315 314 314 313 311 312 316 319 321 327 329 326 320 321 321 319 313 312 311 315 319 317 317 325 323 327 327 314 313 315 319 323 321 318 321 320 313 309 309 309 306 301 305 307 300 296 296 300 303 302 302 306 311 311 308 303 306 299 294 311 308 308 310 311 311 313 315 316 315 316 315 315 315 316 316 317 318 320
314 314 314 314 315 314 315 315 315 314 314 314 314 315 316 316 323 329 324 317 320 318 309 315 313 316 317 318 319 317 316 322 321 317 315 323 324 315 313 320 324 317 314 317 320 315 315 307 307 306 301 309 309 299 306 300 299 306 300 302 304 304 312 304 305 307 301 302 309 310 311 311 312 311 310 311 313 314 315 317 317 317 317 317 318 318 317
314 314 314 314 314 315 315 315 315 314 314 314 314 312 314 317 322 325 327 329 327 324 314 308 313 318 319 318 314 315 317 317 317 318 316 317 320 321 323 324 322 321 320 323 322 315 313 311 311 309 304 306 313 302 303 305 305 308 302 301 308 309 310 300 304 303 307 310 311 312 311 311 311 312 313 312 313 313 314 316 315 316 315 315 317 319 318
313 314 314 314 314 314 314 314 314 314 314 314 313 314 314 317 322 323 323 324 319 314 314 308 317 315 317 313 315 315 316 317 316 315 312 314 316 318 325 323 320 320 320 318 318 315 318 312 308 306 309 307 311 309 309 307 306 304 303 307 313 306 302 306 305 301 300 301 305 310 301 301 307 311 313 314 314 313 313 314 314 315 315 315 315 316 318
313 314 314 314 314 314 314 314 314 314 313 314 314 315 318 319 324 329 330 333 324 314 314 312 311 316 319 314 314 314 315 317 318 316 316 316 316 315 317 321 321 320 320 318 312 309 310 305 305 313 314 312 304 304 310 310 307 303 304 306 311 307 307 305 301 299 299 308 311 311 310 309 311 312 314 314 314 314 313 312 313 313 314 314 315 315 315
313 313 313 313 313 313 314 314 314 314 314 312 314 317 321 324 327 328 323 330 332 326 321 319 319 317 311 311 316 314 318 319 316 318 318 317 317 317 317 318 317 317 322 320 316 313 311 313 315 311 310 314 307 303 306 299 298 297 304 310 311 313 314 311 310 309 310 312 312 314 311 308 311 313 314 313 315 313 312 313 313 314 314 314 315 316 315
313 313 313 313 313 313 313 314 314 314 314 314 315 320 321 321 330 325 320 324 329 329 319 313 308 314 319 316 312 315 314 317 318 317 318 316 316 317 320 321 323 323 321 317 315 311 313 315 312 315 317 316 307 306 301 301 300 304 312 310 310 311 313 315 316 310 308 313 313 314 313 312 314 314 313 314 315 314 312 313 313 314 314 315 316 316 317
313 313 313 313 313 313 313 314 314 314 314 314 318 317 314 309 322 323 319 321 325 326 324 321 312 315 314 318 317 318 314 316 324 320 317 318 322 319 323 324 319 318 317 318 313 314 312 308 310 310 314 313 309 305 302 299 299 303 309 311 312 312 311 312 315 316 315 315 314 314 313 314 314 311 312 313 313 315 314 314 317 320 317 317 316 317 317
313 313 313 313 313 313 314 314 314 314 313 312 315 317 320 319 321 321 318 319 324 326 320 313 311 312 312 314 318 320 316 317 316 318 321 326 322 325 322 322 321 321 317 315 318 313 310 316 314 311 310 309 308 301 302 298 297 303 309 312 313 313 313 313 313 314 315 315 312 309 310 311 313 311 308 312 312 314 313 313 313 315 318 318 316 317 317
313 313 312 313 313 313 314 314 314 314 312 314 314 313 314 313 313 314 316 322 325 324 324 315 309 312 309 313 318 318 317 320 319 322 320 324 324 320 318 325 322 321 325 316 308 304 314 314 313 309 311 313 306 303 301 298 305 308 311 311 312 313 313 314 313 314 313 313 313 309 307 309 311 313 315 312 310 311 313 312 313 312 314 314 312 313 314
312 312 312 313 313 314 314 314 314 313 313 312 312 317 321 317 316 313 320 326 323 327 324 315 310 308 309 319 309 318 320 318 317 319 314 321 328 318 318 317 320 314 314 309 316 314 316 313 309 308 311 310 309 304 295 306 310 311 311 312 312 312 313 313 312 311 312 313 315 314 314 314 314 314 313 312 311 313 316 315 312 310 310 311 311 311 311
313 313 313 313 314 314 314 313 313 316 317 319 319 326 323 317 318 318 321 327 319 314 314 314 315 308 306 308 305 316 323 316 314 320 314 319 324 319 319 313 314 307 309 317 313 310 309 308 312 307 304 307 303 290 297 308 311 311 311 310 312 312 311 309 310 312 313 313 313 314 315 314 311 309 310 311 311 309 310 312 311 310 309 310 310 310 312
312 313 313 314 314 314 314 317 314 316 315 317 323 325 319 317 315 325 328 331 327 318 310 310 310 305 307 302 302 316 320 317 320 320 319 320 317 324 322 316 307 312 318 312 308 312 306 316 309 300 305 300 295 297 304 311 311 311 311 310 311 311 310 310 311 312 312 313 313 313 313 311 310 311 310 309 309 311 311 310 311 310 309 309 310 310 311
312 313 313 313 313 315 314 318 323 318 319 322 322 322 318 324 331 332 332 329 332 332 318 314 308 306 307 309 314 319 318 308 317 314 316 313 312 318 315 312 305 314 313 310 309 306 312 317 309 303 302 294 303 308 310 313 312 311 311 312 312 314 313 313 314 312 309 312 313 311 311 310 311 309 308 310 309 307 308 308 306 307 307 308 309 310 310
313 313 312 312 315 313 314 315 320 326 321 319 321 322 324 320 315 317 319 317 322 322 317 316 307 315 317 313 304 320 313 311 317 310 314 317 313 313 315 310 310 311 301 305 307 312 315 310 307 302 303 307 313 315 312 313 316 315 315 313 313 314 314 315 313 310 307 306 307 308 309 308 308 308 307 308 307 307 309 309 308 308 308 309 309 310 310
312 312 313 315 314 312 314 322 328 318 325 324 321 318 317 316 312 309 309 314 317 310 315 309 305 311 312 308 313 319 316 314 310 312 307 318 309 308 313 304 312 310 299 304 307 315 304 305 306 304 300 307 308 315 316 316 316 317 317 315 315 315 314 314 314 311 308 307 308 309 307 305 307 308 309 310 311 307 307 308 309 310 310 310 310 309 308
313 312 314 315 314 319 327 326 320 322 323 318 319 315 307 315 307 301 313 302 301 312 311 302 309 310 311 309 308 310 320 312 306 307 309 312 316 306 310 308 310 306 298 299 305 312 304 297 303 300 299 305 311 314 315 315 314 316 317 316 316 316 315 316 315 315 315 313 313 312 312 311 310 310 310 308 306 306 307 309 309 308 308 308 311 309 308
315 315 318 314 321 325 326 328 328 324 320 314 313 312 309 300 311 315 310 303 301 305 311 308 310 307 310 312 313 310 319 323 322 322 318 308 322 317 308 304 313 303 301 299 310 310 307 303 301 296 300 309 312 313 315 315 314 315 316 316 316 316 314 315 315 314 314 313 313 312 311 312 311 309 308 308 307 307 308 307 307 308 308 308 308 308 309
312 310 312 314 314 318 324 323 321 315 315 317 305 298 302 306 313 312 311 301 300 309 308 308 305 306 307 309 311 315 318 322 321 317 313 307 314 310 307 309 308 301 296 308 312 309 305 293 292 297 305 314 315 314 313 313 314 314 315 316 316 315 314 314 314 314 314 314 312 311 309 311 310 309 308 308 308 308 307 308 308 308 308 309 310 310 311
312 313 313 313 318 319 321 306 313 312 296 296 296 291 300 296 304 302 304 312 318 312 316 317 317 320 325 322 319 320 320 323 317 315 311 307 313 312 308 305 303 294 303 314 308 303 297 292 296 303 312 314 314 313 313 314 313 314 314 316 316 316 315 314 314 312 314 312 310 310 311 310 309 310 311 311 310 307 308 309 308 309 310 309 308 308 307
317 318 316 317 313 314 314 294 313 306 297 299 294 289 297 297 301 304 302 305 309 308 311 306 310 309 308 319 315 317 320 320 319 318 313 314 310 306 304 297 300 310 313 305 303 297 299 304 305 306 313 315 317 316 315 315 314 314 315 317 316 316 315 315 314 312 313 313 312 310 309 309 310 310 309 306 306 306 308 308 311 310 310 308 307 308 310
313 314 315 306 297 304 296 287 311 301 292 297 301 300 299 295 300 303 302 316 314 311 320 317 316 312 311 321 321 320 317 312 320 311 305 309 305 306 303 300 308 309 303 299 300 301 302 301 308 310 310 313 314 315 316 317 317 315 316 317 316 315 314 313 312 312 310 310 310 309 308 309 309 308 308 309 311 311 309 308 309 309 310 309 307 306 307
313 303 300 294 291 294 296 291 295 293 303 305 303 304 303 304 304 311 314 316 314 313 316 314 316 315 311 320 313 310 317 316 309 309 312 310 303 299 310 314 310 301 300 299 296 293 299 303 305 311 313 314 315 315 316 317 318 318 316 314 315 315 314 313 312 312 311 311 311 308 310 309 307 306 306 308 309 311 309 309 310 310 309 307 307 308 308
312 315 304 299 293 296 309 294 296 301 305 306 307 308 307 308 315 318 319 316 314 319 318 319 318 321 312 313 312 313 317 315 308 312 311 304 302 306 313 304 298 299 295 294 296 299 301 305 309 312 314 313 315 317 318 318 318 317 317 314 313 314 315 313 312 314 312 312 312 310 308 308 308 307 309 309 309 308 308 309 310 310 309 307 308 308 307
299 309 312 293 290 295 294 301 307 307 306 306 306 307 310 316 314 315 319 318 319 322 318 316 313 315 312 317 318 308 310 312 307 308 310 305 307 302 295 299 298 301 302 299 299 303 305 308 311 313 314 316 316 315 315 315 314 314 312 313 314 313 313 313 313 312 311 308 306 306 307 308 308 308 306 306 306 308 309 308 309 308 308 308 308 307 307
314 302 297 296 302 303 302 304 304 301 303 305 307 308 310 313 314 317 320 322 322 319 319 315 315 313 308 313 312 308 305 310 299 298 306 304 299 294 294 292 296 295 302 304 304 305 307 311 314 315 315 315 315 314 314 314 313 313 314 313 312 311 312 313 312 312 308 309 308 308 308 309 309 309 309 307 307 307 308 309 310 309 308 307 307 306 306
303 301 308 303 304 305 306 307 305 302 304 306 308 311 312 313 311 314 320 319 321 319 318 317 320 311 310 311 299 305 302 308 306 301 302 299 299 301 299 295 298 299 301 305 305 308 311 313 313 313 312 313 314 314 311 313 314 313 312 312 311 311 312 314 312 308 308 307 307 308 308 309 308 307 307 306 307 309 309 310 309 307 308 309 308 307 307
314 309 303 310 304 303 306 301 301 301 303 304 308 311 314 312 315 314 321 320 324 318 315 310 312 308 298 297 295 293 300 310 304 301 300 300 304 302 299 298 300 303 305 308 310 311 312 313 314 312 312 313 313 312 312 312 312 312 314 314 313 313 312 312 308 306 306 307 308 308 308 308 309 311 311 309 309 307 306 307 308 308 308 308 308 308 307
298 296 301 307 309 308 307 307 308 306 307 308 308 316 315 313 318 323 322 320 318 314 308 313 311 299 294 294 302 308 313 304 301 303 300 304 306 300 301 302 305 307 307 307 308 309 311 314 314 314 312 313 313 313 314 315 314 314 314 312 312 310 310 308 307 306 307 308 307 308 309 309 308 308 309 308 307 307 305 305 308 308 308 308 308 308 308
Wind_Speed
21 20 20 20 21 21 21 21 21 22 24 9 7 6 3 3 6 11 5 9 2 2 5 4 5 7 8 10 8 1 1 5 5 4 6 7 5 3 5 5 5 4 3 8 7 8 2 6 2 2 2 5 6 6 10 5 8 11 6 7 4 5 3 6 4 4 8 9 9 2 6 4 4 4 6 5 6 2 3 2 1 0 1 4 4 4 1
21 21 20 21 21 21 21 20 19 19 18 7 8 4 3 6 7 7 1 3 7 4 4 4 4 4 11 10 10 6 4 6 8 9 10 1 5 6 4 5 3 4 4 6 2 8 2 3 5 2 9 3 7 3 7 8 3 4 3 2 5 2 3 5 3 3 5 8 7 9 6 5 2 3 4 4 4 9 9 4 3 3 2 1 7 4 3
21 21 20 20 21 21 21 20 18 17 14 9 4 3 4 5 5 7 8 6 5 5 4 7 4 2 7 8 14 3 6 2 5 8 8 6 3 3 4 3 3 2 6 8 3 5 2 1 7 6 5 1 1 1 3 7 3 5 1 4 3 2 2 3 2 4 5 5 5 6 10 8 7 6 3 2 6 2 2 5 3 2 2 2 5 4 2
21 21 20 20 21 22 22 21 20 17 15 11 3 4 3 3 3 2 4 3 3 6 5 7 8 5 3 6 7 6 0 8 3 3 10 3 6 3 2 1 2 3 1 4 1 3 9 2 2 1 1 3 3 5 3 6 4 4 6 6 2 2 2 1 2 2 3 6 6 9 8 3 4 9 11 7 7 17 14 2 1 1 3 9 3 12 8
21 21 21 20 21 22 22 23 22 20 15 9 2 4 3 4 4 3 3 1 5 5 7 8 7 4 4 2 2 10 5 4 6 4 2 5 4 5 3 3 2 6 7 6 3 3 2 1 4 2 6 4 4 4 4 4 6 4 2 5 1 1 2 5 4 4 4 3 5 8 8 6 8 9 10 11 12 20 23 13 8 2 11 9 4 5 10
21 21 21 21 21 22 23 23 24 25 20 9 3 3 3 3 2 5 4 2 3 7 6 9 8 7 7 2 4 5 8 8 1 2 3 5 2 4 2 6 4 2 2 3 1 7 7 5 6 11 2 2 6 3 1 2 2 1 3 5 3 2 1 6 10 10 11 11 9 8 8 2 3 8 15 17 20 21 17 17 16 13 8 8 6 12 10
22 21 22 21 21 21 23 24 25 27 27 9 5 2 3 5 5 6 9 6 7 11 10 10 9 11 7 3 3 9 8 4 4 0 4 4 3 3 3 4 3 3 7 4 3 2 2 4 3 2 5 8 6 5 13 5 12 1 4 4 2 2 2 5 4 7 9 10 9 8 6 3 3 9 17 19 22 20 19 19 19 19 13 12 12 12 12
21 21 21 21 21 20 22 23 25 28 31 8 4 1 4 5 6 5 8 7 8 10 10 4 8 2 9 5 4 7 8 5 3 3 5 2 3 5 9 1 1 9 5 5 4 5 5 3 2 3 5 3 3 3 1 3 7 4 3 2 0 3 3 8 4 4 6 9 9 8 3 5 8 18 15 15 18 19 17 15 12 14 13 12 14 10 8
21 20 21 21 20 19 21 22 24 27 25 4 5 4 6 6 4 3 5 6 5 8 8 5 4 1 3 2 5 4 9 1 6 6 7 4 7 5 7 9 8 2 7 2 7 5 4 2 2 1 2 2 2 3 2 1 1 4 1 2 1 1 1 4 2 4 6 7 7 6 7 10 15 15 15 17 18 15 13 12 9 10 9 8 9 5 4
20 20 20 21 20 19 20 20 22 24 22 4 5 5 7 7 7 6 3 3 4 6 7 7 3 3 2 3 3 4 2 5 7 2 5 3 6 4 5 8 4 5 5 3 6 5 5 6 1 0 4 3 2 7 4 4 1 4 3 3 2 2 3 3 3 2 3 11 6 8 2 8 11 9 10 15 18 13 14 13 13 10 6 8 7 3 3
21 20 20 20 19 18 18 19 19 21 14 7 5 4 7 7 9 7 4 4 4 5 4 6 7 3 6 5 9 2 4 2 6 2 3 4 8 5 6 6 5 2 6 5 6 4 3 3 5 4 6 5 4 4 4 8 4 4 1 1 2 1 2 3 0 0 3 10 9 10 3 8 1 6 9 14 15 16 16 12 13 11 7 5 4 5 5
21 20 20 19 19 17 17 17 17 16 13 7 4 5 5 6 6 3 3 3 4 6 2 3 7 7 9 5 8 5 2 1 5 6 4 4 4 3 4 3 2 1 3 4 5 2 5 4 4 3 5 5 6 7 7 8 4 9 3 4 2 1 4 2 2 1 2 5 7 4 5 1 6 8 8 11 16 18 18 14 14 11 9 9 8 8 6
20 19 19 18 18 17 16 16 16 15 14 10 5 5 5 6 4 3 3 4 3 3 3 5 5 10 14 12 8 6 3 5 6 8 5 6 6 4 3 3 4 5 5 3 7 2 3 3 4 4 6 6 7 7 7 7 8 3 1 2 5 3 1 2 1 1 2 2 2 1 3 5 4 5 9 8 8 12 13 14 14 12 11 7 8 8 8
20 20 19 18 18 17 16 15 15 16 15 12 7 5 7 5 4 4 3 3 3 4 5 5 7 10 9 17 5 8 3 4 7 2 7 4 8 3 3 2 5 2 2 1 1 2 4 1 3 1 1 2 0 2 4 9 8 2 3 4 4 6 3 2 2 0 0 2 3 6 2 1 11 6 7 6 6 4 7 6 7 11 9 10 6 8 10
20 19 19 18 18 17 17 16 16 16 16 15 7 7 6 6 5 2 3 2 4 6 5 0 4 7 11 12 4 3 2 5 8 1 1 6 6 7 5 5 1 2 1 2 1 0 2 1 2 2 3 1 2 1 1 2 1 2 7 4 1 2 2 0 2 1 2 0 5 0 3 3 3 3 6 6 9 8 10 7 5 10 10 10 8 8 9
19 19 18 19 18 18 18 18 16 16 16 17 7 6 8 7 5 3 3 3 3 2 1 2 4 9 8 12 9 2 4 2 2 4 2 2 5 1 6 3 4 2 3 2 1 1 2 1 2 3 1 1 3 2 1 0 2 6 5 6 6 1 6 4 2 2 2 2 1 1 3 2 5 8 9 8 8 7 5 8 6 6 8 8 9 10 8
19 19 19 19 18 18 19 18 16 16 15 15 9 7 6 3 2 3 4 3 2 5 9 9 9 7 1 4 7 6 3 3 2 1 1 2 4 7 7 3 4 2 3 4 0 1 2 3 2 2 3 4 3 1 1 2 1 3 7 7 11 10 1 2 2 4 3 3 3 2 2 1 3 8 8 7 6 7 3 1 2 6 9 5 7 9 9
18 19 18 18 18 18 18 17 17 16 16 14 10 6 7 8 5 4 4 3 4 3 5 6 6 2 1 4 2 6 4 1 3 1 1 1 2 4 7 1 3 4 2 1 1 2 3 1 2 1 1 2 2 2 2 2 2 1 1 2 2 3 3 5 4 1 4 8 2 3 1 2 8 7 9 11 7 2 7 3 0 3 4 7 6 8 8
18 18 18 18 17 18 18 18 17 19 17 15 11 6 7 5 6 4 4 4 3 3 4 3 6 8 3 3 4 2 3 2 2 2 2 2 0 2 6 6 3 1 2 1 3 1 1 1 0 2 2 2 2 2 3 2 1 1 2 2 2 2 2 2 3 5 2 1 5 2 3 1 7 3 12 10 2 5 4 2 2 1 4 5 8 7 7
18 17 17 17 16 17 18 17 16 18 18 15 10 5 10 10 9 6 3 4 3 5 8 5 5 7 8 2 2 0 4 6 0 2 3 1 2 4 3 3 3 2 2 2 1 0 2 1 1 0 2 1 0 1 1 5 3 2 1 2 3 2 2 2 2 2 1 1 3 2 1 3 7 3 7 12 5 2 1 1 4 4 5 6 6 7 5
17 17 17 17 17 17 17 16 15 16 18 15 11 6 7 5 7 2 3 3 4 5 4 4 9 4 2 2 4 8 5 3 4 4 0 1 1 2 0 1 2 2 1 1 2 2 2 1 0 1 0 1 2 1 1 1 3 0 3 2 2 2 1 1 1 1 1 2 2 1 1 3 7 8 6 2 5 1 3 3 4 4 5 4 3 5 5
18 17 17 17 17 17 16 16 15 15 18 15 14 5 4 5 8 7 6 4 4 5 3 10 11 6 5 3 6 3 6 8 7 3 2 3 1 1 2 2 1 2 1 1 2 2 3 2 2 3 2 0 1 3 1 1 1 0 2 1 2 3 2 2 2 3 2 2 3 2 3 5 7 9 7 6 6 6 5 5 4 3 4 4 3 4 5
18 18 17 17 16 17 16 16 15 14 16 16 11 4 5 8 8 9 9 5 4 5 5 7 9 5 2 3 4 4 5 3 3 3 3 2 3 1 3 3 2 1 2 2 1 0 0 2 1 2 0 2 1 1 2 2 2 0 1 1 4 1 2 2 2 4 6 6 2 5 3 6 7 7 7 7 6 5 5 4 4 4 3 4 4 3 5
17 17 17 17 17 16 16 16 15 14 14 15 10 6 6 6 9 8 7 3 2 3 5 4 3 3 3 2 6 1 3 3 2 2 2 1 0 2 4 3 1 3 2 0 0 1 0 1 2 1 1 1 2 1 1 1 2 1 2 1 1 1 1 0 3 4 4 2 4 3 5 5 6 9 8 8 7 4 3 5 3 4 5 5 5 4 5
17 17 17 17 17 17 16 16 16 15 13 16 13 8 8 8 6 4 5 5 4 3 2 2 3 5 6 6 2 3 2 1 2 4 4 1 1 2 2 2 2 2 1 1 0 1 0 0 2 1 2 0 1 1 1 3 1 1 2 1 2 0 1 1 3 2 3 4 3 3 6 8 7 5 5 7 6 4 3 3 5 4 4 4 4 5 4
17 17 17 17 16 16 16 16 16 14 13 14 13 7 5 6 8 8 7 4 4 3 2 3 1 2 2 3 3 7 5 7 1 6 3 5 9 6 3 1 1 1 0 0 1 1 1 1 1 2 1 1 1 1 1 2 3 2 2 2 0 2 1 1 2 3 3 4 2 3 8 7 7 7 6 5 4 4 3 3 5 4 3 4 4 4 3
17 17 17 16 16 16 17 16 16 16 14 13 10 7 7 8 8 6 5 3 4 1 1 2 1 6 6 9 6 1 5 5 4 3 3 1 3 5 2 1 0 1 0 2 1 1 1 0 1 1 2 2 1 1 0 1 1 0 2 1 1 2 1 1 7 7 3 2 2 3 4 3 3 4 3 4 4 4 4 3 4 4 3 3 5 4 5
17 16 17 16 16 16 16 16 17 17 14 15 11 8 7 7 6 5 7 2 2 3 4 2 3 5 7 9 3 2 6 4 3 4 3 4 6 5 3 1 1 2 2 0 1 1 0 1 1 1 2 2 2 1 1 2 1 1 4 2 2 4 1 1 4 5 3 3 3 5 7 5 3 4 4 6 4 3 3 3 4 4 4 4 3 4 4
17 17 15 15 15 16 15 16 17 17 16 14 9 8 7 9 8 5 5 5 3 3 3 3 3 2 0 5 3 4 1 3 5 2 2 3 6 6 5 4 3 3 2 1 0 0 1 1 2 2 1 0 1 1 1 2 2 2 1 1 2 2 2 6 8 9 5 5 4 3 3 4 4 4 4 5 4 3 3 4 5 4 3 3 3 2 4
17 16 15 13 14 15 16 16 17 15 15 9 6 3 2 3 2 4 7 6 5 2 2 2 1 1 5 5 6 3 5 5 2 3 4 6 8 6 2 1 1 3 1 1 0 1 2 2 2 2 1 1 0 1 1 1 2 1 2 5 4 5 5 5 2 6 5 4 4 3 5 6 5 7 6 4 3 3 2 3 4 3 3 1 1 2 2
16 15 13 13 15 15 15 16 15 14 12 6 4 2 3 3 1 4 8 7 6 3 2 1 2 3 3 5 5 2 3 2 1 1 4 5 2 3 1 1 1 1 2 1 1 0 1 1 3 1 1 2 1 0 1 2 2 1 4 4 4 4 4 4 5 6 6 5 5 4 3 3 7 7 5 4 3 3 2 3 4 4 1 1 1 0 2
15 13 12 14 16 16 16 15 15 13 7 5 4 1 2 1 2 7 9 7 5 2 2 1 1 1 0 3 5 4 6 3 4 2 3 1 1 1 2 1 1 2 2 2 1 2 1 1 2 3 2 2 1 1 1 1 1 5 4 5 4 4 4 5 5 4 4 4 6 4 4 5 4 4 4 3 5 4 4 4 2 0 3 1 4 3 3
14 13 13 15 16 17 16 15 14 9 7 10 16 20 21 22 23 17 7 5 2 3 2 1 1 1 1 2 4 6 2 1 2 2 1 2 1 1 1 0 1 1 2 2 1 1 1 2 0 1 1 1 1 0 1 2 2 6 6 5 5 5 5 4 4 4 4 2 1 3 6 6 5 5 4 5 5 4 4 2 1 4 2 4 4 4 4
14 12 14 15 16 16 16 16 14 14 12 5 5 4 6 13 11 9 4 2 2 3 2 1 1 1 1 2 2 3 4 1 1 1 0 0 1 0 1 0 0 0 1 1 0 1 0 0 2 2 1 1 0 1 1 1 6 7 6 5 5 5 4 4 4 4 4 3 3 7 7 6 5 5 5 5 4 4 2 2 3 4 5 4 5 4 4
11 12 14 16 16 15 18 16 7 3 4 5 4 2 4 7 6 7 7 1 1 2 1 2 0 1 1 1 2 2 3 2 1 0 1 1 0 1 1 0 2 1 1 2 1 2 2 3 2 3 4 3 2 1 2 5 5 6 5 6 5 6 5 5 4 4 5 4 4 5 6 5 6 4 4 4 5 4 3 3 4 4 3 3 4 4 4
12 13 15 15 16 13 8 4 4 4 3 3 1 1 5 6 4 3 4 2 1 2 1 2 3 3 2 2 2 0 2 1 1 1 1 2 1 0 0 1 2 2 1 2 1 1 2 0 2 3 1 2 3 3 4 9 9 8 7 8 7 7 5 5 5 6 5 4 6 4 5 5 4 5 4 4 4 4 3 4 3 5 3 3 3 4 4
12 13 15 15 8 2 4 3 4 5 2 4 4 7 4 2 2 2 3 2 3 2 2 2 2 4 4 1 1 1 1 1 2 2 2 2 2 2 2 2 2 0 0 2 2 3 1 2 1 2 2 3 3 7 7 9 11 10 9 7 7 6 5 5 7 7 6 5 7 4 3 3 2 4 3 3 4 5 2 2 5 3 3 3 2 2 3
12 12 5 3 3 3 3 3 1 1 7 8 6 2 1 1 2 2 2 2 3 3 3 2 3 1 2 1 2 2 2 1 2 1 1 1 1 1 1 1 1 1 4 2 4 5 1 0 2 3 3 4 3 6 8 6 7 9 8 10 8 6 6 5 8 8 5 4 4 5 4 3 2 4 3 3 5 4 2 4 4 4 4 4 4 4 3
8 3 3 3 3 2 2 3 2 3 4 2 3 1 2 2 2 2 3 2 2 3 2 3 4 4 3 3 1 2 2 1 2 1 2 2 1 3 1 2 1 2 1 1 2 3 2 3 2 2 6 3 4 3 5 7 7 6 8 9 8 6 7 6 7 8 7 4 4 6 6 6 4 3 3 1 1 4 4 3 2 2 2 4 5 4 4
2 3 2 3 3 2 3 1 5 3 2 2 2 2 2 2 2 1 3 2 2 3 3 5 4 4 5 6 4 3 2 3 3 3 1 0 1 2 1 1 1 1 2 3 1 2 1 2 2 3 5 4 3 5 5 8 8 6 8 9 8 7 7 5 6 5 5 5 4 5 5 6 5 4 3 4 5 5 6 4 4 4 4 4 4 4 4
2 4 4 3 4 4 4 5 2 2 2 2 1 2 1 1 2 1 1 3 2 2 3 3 4 6 5 4 6 3 2 2 1 2 1 2 0 1 2 1 1 1 2 3 1 1 1 2 2 3 3 3 6 8 7 7 7 7 8 9 8 8 7 5 6 6 5 5 4 5 5 4 4 5 7 6 6 4 4 4 5 4 4 4 4 3 3
2 2 4 6 7 6 5 2 2 2 2 0 2 2 2 2 1 2 2 2 4 2 5 4 5 6 6 8 5 4 1 3 2 2 2 2 2 2 2 2 1 2 2 0 2 2 1 2 1 3 4 4 7 9 9 8 7 8 8 9 9 8 8 6 6 5 4 5 6 6 5 4 5 5 5 4 4 3 4 4 3 3 2 2 2 2 2
15 9 5 4 3 3 2 1 3 2 1 1 1 2 2 1 2 3 3 2 1 2 0 3 2 2 1 2 2 4 2 2 2 2 2 1 2 1 1 1 2 3 3 2 1 2 3 2 3 1 5 1 7 9 8 8 8 8 8 8 8 8 7 7 6 6 5 7 7 5 4 5 6 5 4 1 3 3 2 1 2 1 1 2 3 3 4
6 4 3 3 2 2 2 1 2 1 1 0 2 2 3 5 4 2 4 3 3 3 4 5 3 4 2 0 2 2 2 1 0 1 1 1 2 2 2 2 4 1 1 3 2 5 4 1 1 3 4 2 2 2 2 3 5 5 6 7 8 8 7 7 7 6 5 6 6 7 6 5 4 5 6 5 4 3 1 1 2 2 2 1 3 3 1
3 3 2 1 0 1 1 1 2 1 2 3 2 4 4 5 3 6 3 2 1 1 0 2 2 3 3 1 2 1 1 1 2 1 1 2 3 2 2 1 1 1 1 2 2 2 2 1 1 2 3 3 5 5 6 6 4 4 4 4 4 5 7 8 7 5 6 5 5 6 4 4 3 5 4 3 2 2 1 1 1 1 1 1 1 2 3
3 1 1 2 3 2 0 1 1 1 3 3 4 5 5 8 5 1 2 1 3 1 4 6 3 3 4 2 1 2 1 1 2 0 2 1 1 1 1 2 0 2 2 3 4 3 1 3 3 1 2 2 3 3 4 3 4 5 8 8 5 4 6 6 5 6 6 4 5 6 4 6 7 7 5 2 1 1 1 1 1 0 0 0 1 0 2
4 3 1 0 0 1 2 1 4 4 3 3 5 5 7 1 1 1 1 5 6 4 3 5 4 2 3 2 2 1 1 1 1 1 0 1 1 1 0 0 2 2 2 3 4 1 3 1 3 3 0 0 1 1 2 3 4 6 4 3 2 4 6 5 6 2 4 4 5 7 7 5 5 4 4 3 2 1 0 0 1 2 2 1 1 1 1
2 3 2 1 2 1 4 6 3 5 6 7 6 7 4 4 3 3 2 2 4 3 4 5 3 3 4 3 1 2 1 1 0 2 1 1 1 1 0 2 3 2 2 3 1 1 1 3 0 2 3 1 1 2 4 6 8 6 5 3 4 4 4 8 3 3 7 7 9 7 5 5 4 4 4 3 1 2 1 1 1 1 1 2 1 0 1
3 1 1 1 2 2 4 4 5 6 6 6 8 5 3 2 1 2 5 3 1 2 3 5 1 3 2 1 0 2 2 1 1 1 1 0 2 2 2 2 2 3 2 1 3 2 3 1 2 2 2 2 2 4 5 4 5 5 2 1 6 5 8 2 5 4 8 5 6 5 5 4 4 3 2 2 3 5 4 3 2 1 1 2 3 3 2
1 1 2 2 4 6 7 7 8 7 5 5 4 2 0 1 2 9 1 2 1 4 3 3 1 1 2 1 1 1 0 2 2 1 2 3 2 0 1 5 2 3 2 1 2 1 2 1 3 3 2 1 3 4 5 5 6 7 8 6 2 3 2 7 3 7 7 6 6 5 5 4 4 3 2 5 4 2 0 1 1 2 2 2 3 2 2
2 2 2 5 7 6 6 7 7 8 8 8 4 2 2 2 4 3 5 3 1 4 3 2 1 1 1 1 1 0 0 2 1 2 2 2 1 2 1 3 2 0 1 1 1 1 1 1 1 3 3 2 3 4 5 6 5 5 5 5 6 6 7 6 6 9 7 5 4 4 4 4 3 2 3 4 4 3 2 1 3 1 2 2 2 2 3
1 1 4 4 6 8 8 7 7 6 6 5 4 2 4 4 3 4 2 3 3 2 2 1 0 2 1 1 1 0 1 1 1 1 2 2 2 2 3 4 4 4 3 4 3 1 2 2 0 2 3 3 3 4 4 4 5 5 4 7 8 8 6 3 6 6 5 4 4 3 3 4 6 4 3 2 3 2 1 2 2 3 1 1 1 2 3
Wind_Direction
346 344 344 345 348 350 352 355 355 357 353 6 1 310 272 232 244 276 139 122 166 211 257 287 260 242 251 239 241 297 172 266 311 289 357 25 37 335 339 31 342 42 307 9 334 345 45 357 124 56 65 59 45 28 322 11 29 12 7 350 7 317 359 343 316 343 320 302 318 252 165 294 310 191 203 187 230 229 231 195 209 290 322 31 46 71 232
345 344 344 346 346 348 351 355 358 358 13 354 308 280 299 309 303 296 302 183 139 246 269 253 263 287 325 306 294 184 355 327 345 348 345 22 0 1 22 18 46 321 25 322 7 360 23 350 43 107 46 22 318 352 320 4 70 37 352 319 333 18 347 0 340 353 331 340 355 358 19 350 340 320 278 227 223 199 240 284 59 17 7 118 117 131 236
344 343 343 346 346 347 348 353 354 357 354 353 316 326 312 296 276 249 266 198 142 236 208 239 256 310 269 309 297 277 189 135 11 331 327 328 1 334 14 10 295 324 22 320 355 288 71 305 75 62 96 70 342 159 358 323 46 57 45 337 344 83 330 70 45 32 15 356 332 325 324 307 292 286 322 313 270 357 154 255 306 301 272 54 105 88 53
344 343 344 346 347 347 348 348 351 350 351 340 266 267 283 248 292 303 266 168 180 222 266 287 285 261 265 285 298 295 179 104 193 189 273 122 296 229 323 207 207 344 348 236 356 333 81 52 35 343 141 171 121 35 314 303 59 44 6 336 0 17 320 300 154 150 185 218 223 225 225 262 329 341 330 322 12 16 358 323 316 161 89 76 65 129 124
343 343 343 346 348 348 348 347 344 346 345 349 263 277 239 326 279 287 327 348 223 222 187 237 228 266 121 185 342 292 306 170 145 71 317 88 307 319 286 56 343 28 303 11 348 332 64 130 142 20 314 30 114 187 341 4 72 336 320 230 278 118 311 295 269 205 215 238 263 283 283 336 346 335 342 344 60 59 60 41 341 48 81 50 11 94 102
343 343 343 346 348 348 349 348 345 340 341 342 229 278 207 257 260 301 26 311 302 318 269 227 235 128 156 187 182 270 329 328 161 202 190 314 206 332 104 306 262 164 83 35 300 21 25 4 36 355 313 356 18 35 244 221 79 171 328 48 75 78 12 340 355 348 344 331 308 302 304 317 310 5 22 40 48 57 57 47 34 57 73 102 46 57 65
348 347 346 347 348 348 350 350 348 343 335 334 197 300 303 304 338 339 359 323 341 309 307 331 337 318 29 29 22 272 262 276 21 31 59 338 69 152 348 356 353 292 39 94 32 20 44 7 1 52 344 39 26 15 352 343 339 53 78 45 25 37 332 359 330 326 315 309 314 296 232 4 324 55 58 57 56 50 47 54 55 58 69 58 56 60 58
348 347 346 346 348 350 352 353 353 346 338 331 185 266 339 12 343 343 339 328 309 317 322 309 287 286 46 356 286 348 326 270 35 313 224 109 3 79 275 250 327 29 97 69 38 53 53 55 349 35 329 358 63 10 197 263 313 16 19 92 308 51 5 352 354 342 315 307 306 300 337 286 48 39 55 69 68 58 53 57 67 78 74 74 47 16 43
348 346 345 346 348 351 354 357 359 351 343 21 350 19 24 325 344 335 317 320 313 314 306 305 295 9 118 180 269 256 254 316 38 3 6 325 322 7 20 342 48 80 36 89 140 135 142 177 42 201 252 166 175 182 228 231 281 292 341 36 336 10 16 298 301 16 315 313 301 292 274 67 40 33 21 60 60 56 49 56 48 63 72 82 97 78 25
348 346 345 345 348 352 357 1 2 0 338 6 335 6 342 329 337 346 328 293 315 304 309 293 260 264 100 352 51 246 354 345 151 316 334 18 269 301 345 347 325 33 13 60 48 77 47 8 114 274 298 4 211 188 206 190 5 355 346 14 36 39 24 354 22 36 294 292 279 274 293 61 34 12 7 70 76 81 72 64 56 56 67 74 67 87 351
349 348 344 345 348 353 359 1 7 8 4 29 355 327 337 3 343 335 330 312 303 304 314 324 330 10 8 145 275 175 303 45 31 102 207 321 29 46 2 315 353 108 59 357 17 353 352 12 337 345 325 321 317 296 282 263 219 212 359 6 141 137 53 339 135 126 266 308 334 348 41 70 213 267 68 74 80 75 69 54 55 52 50 75 63 71 58
349 349 346 345 348 352 357 1 6 14 14 354 307 274 276 337 322 289 313 315 301 302 327 302 316 335 272 247 251 279 261 275 180 133 294 356 159 325 311 248 128 54 320 298 306 353 10 296 257 270 285 276 290 319 317 337 343 127 194 196 169 142 112 246 27 345 306 328 346 13 59 243 275 9 40 88 91 81 75 60 46 40 44 62 54 36 48
347 348 347 345 346 350 355 2 3 5 5 351 317 274 304 334 291 316 305 286 283 292 352 311 283 305 340 299 216 223 72 80 51 31 5 320 7 266 126 354 59 37 323 20 354 2 263 293 285 264 226 239 244 233 235 210 251 163 25 79 85 15 91 55 310 236 306 341 300 80 188 210 281 358 16 9 111 106 87 58 29 21 28 33 54 39 36
345 347 346 343 343 347 352 357 359 358 357 351 322 283 285 306 317 350 342 330 305 306 316 316 331 325 327 327 317 74 50 85 100 352 296 222 256 98 119 271 43 280 297 86 133 50 345 338 282 193 286 267 96 282 236 256 192 198 153 17 49 87 13 82 314 345 12 302 13 101 205 28 11 357 346 332 15 44 96 90 28 4 13 17 45 43 34
343 344 345 343 342 343 349 352 355 355 352 348 304 286 286 296 308 335 296 271 289 309 294 235 293 322 346 309 290 84 105 2 19 154 312 8 301 87 20 343 83 333 28 348 359 222 219 246 246 225 161 196 185 223 148 331 58 148 39 34 144 132 90 113 78 280 133 82 112 1 40 41 297 293 254 331 20 92 114 107 67 354 4 7 30 46 39
341 343 343 343 341 344 346 352 355 353 355 349 325 315 286 269 285 296 306 295 312 296 237 245 298 18 344 317 319 338 116 74 63 333 5 289 301 268 82 333 23 8 285 169 125 9 293 294 305 334 24 355 20 81 317 63 4 359 54 1 349 289 138 149 119 269 3 312 154 45 110 224 243 294 332 354 359 347 107 79 43 332 340 27 16 33 30
339 341 342 341 341 342 344 351 352 354 355 1 339 318 295 308 329 315 329 299 261 272 319 341 17 36 260 262 1 14 350 111 119 42 328 312 337 339 146 169 110 233 36 14 87 213 298 265 280 273 71 11 39 353 340 16 87 343 353 359 8 339 133 95 45 2 44 17 63 83 55 172 305 328 342 348 330 341 326 87 17 329 337 24 39 30 19
336 339 341 341 340 340 342 347 351 351 353 352 339 295 279 293 285 277 275 284 296 287 290 305 341 38 131 200 76 312 312 18 77 113 221 209 313 10 351 0 269 118 89 209 295 240 255 338 29 8 345 68 304 284 69 256 80 147 15 308 2 347 349 59 102 98 18 75 81 92 76 20 344 335 357 331 304 331 58 108 63 290 337 9 35 47 14
334 337 339 340 338 337 340 345 350 349 351 350 335 288 242 258 288 293 272 275 266 271 309 335 329 268 264 108 76 256 309 20 65 30 350 340 44 302 313 334 26 359 337 50 349 286 278 77 274 24 25 330 356 87 274 45 116 294 358 48 1 0 61 8 16 29 25 52 94 132 120 47 330 352 15 343 19 66 123 181 230 346 22 41 40 42 29
332 335 338 338 338 335 338 345 349 348 349 351 351 297 280 287 273 242 295 330 319 301 296 309 317 5 343 51 39 309 360 351 155 155 139 214 270 303 357 328 11 349 331 37 298 1 63 7 266 125 53 323 40 182 53 49 30 57 35 37 69 1 43 38 48 291 59 56 106 82 33 348 345 339 33 8 62 129 46 85 51 39 29 21 50 48 37
330 334 335 336 336 335 336 342 346 348 346 348 348 323 319 295 326 337 338 352 302 306 284 309 330 310 345 120 125 38 47 67 12 27 325 279 310 79 160 240 300 358 51 329 348 351 21 2 30 121 190 71 305 39 114 145 106 309 116 82 96 264 92 25 59 17 119 60 74 168 200 74 28 61 86 42 68 107 63 80 91 53 21 14 18 61 50
328 332 332 331 333 333 335 340 344 348 344 345 338 297 261 298 330 323 332 302 256 249 277 315 303 295 69 347 23 53 28 16 26 58 48 356 283 170 181 171 20 52 84 329 12 15 6 338 339 30 19 303 64 96 40 28 115 293 53 76 71 318 118 186 111 351 77 135 151 210 184 125 103 97 97 85 56 54 68 78 69 54 45 352 35 65 64
325 328 329 328 328 331 335 337 340 345 343 343 344 324 295 310 306 321 317 292 242 239 270 284 297 297 330 290 240 310 343 60 317 58 64 21 315 295 62 56 29 282 58 49 117 171 16 340 11 191 315 65 63 36 63 132 122 155 117 324 147 228 174 197 64 83 78 44 73 160 111 100 100 95 96 91 80 66 68 69 63 34 38 23 17 50 94
322 323 325 326 325 328 332 334 338 340 340 338 336 310 294 287 289 312 311 267 240 307 298 255 253 287 285 140 54 74 195 115 305 330 132 183 233 346 32 17 337 47 54 306 143 130 288 280 270 44 76 338 5 296 107 22 58 80 124 74 63 34 31 128 116 143 94 79 338 87 114 113 92 100 104 103 96 83 82 81 74 60 26 15 1 359 102
319 320 320 323 323 325 327 330 335 336 336 334 329 292 269 268 256 298 331 335 349 358 314 331 272 12 51 33 267 155 310 41 224 206 185 151 306 75 103 96 23 120 68 307 242 342 268 292 324 345 91 261 64 339 100 96 300 317 87 177 131 336 306 54 104 99 120 174 193 87 78 90 94 87 85 83 80 71 49 82 86 70 42 1 358 346 32
317 316 319 320 321 322 324 327 331 332 333 327 323 307 297 283 301 307 268 258 262 237 268 293 63 63 346 243 259 52 338 284 115 3 72 98 71 72 100 72 35 351 72 304 66 17 37 353 318 288 77 303 351 81 10 183 180 202 136 160 189 160 137 110 109 92 71 87 102 99 79 71 77 80 75 83 103 108 73 45 80 71 64 1 340 355 351
314 316 317 319 318 320 322 324 328 330 327 320 318 290 270 272 276 269 288 354 314 195 204 258 236 311 334 308 79 265 263 270 145 185 235 250 133 118 117 153 183 334 241 270 171 207 212 185 122 312 107 175 224 235 148 16 61 75 76 91 129 80 47 186 112 108 143 158 171 135 135 142 106 101 121 117 78 69 65 57 78 85 59 19 11 351 358
313 313 316 317 317 318 320 321 325 328 325 320 303 273 251 256 258 268 274 349 0 326 339 341 330 323 319 275 151 223 194 261 35 84 69 141 150 142 140 110 18 265 250 16 42 338 280 294 213 311 62 16 23 332 127 134 80 61 63 1 357 112 208 77 102 144 164 154 126 105 104 96 130 127 91 77 70 64 85 77 64 59 58 28 17 12 349
311 313 312 313 314 316 316 320 325 327 326 324 302 280 248 230 244 275 336 6 332 278 268 277 284 269 320 332 314 237 221 326 165 226 146 101 84 72 44 16 347 323 42 79 100 312 335 76 47 48 97 194 120 325 335 207 167 121 166 93 54 49 49 107 120 103 108 125 108 75 105 134 120 100 99 92 69 57 52 85 81 58 49 32 356 17 349
310 311 311 310 312 313 313 318 324 326 330 320 300 274 269 117 87 48 14 1 346 318 301 331 290 299 343 294 255 256 141 272 44 107 133 86 62 49 50 307 317 346 51 55 15 293 295 101 74 88 111 113 111 341 276 280 81 75 86 84 78 75 62 50 102 134 146 126 111 108 107 115 125 112 105 103 98 108 107 87 96 73 63 341 12 359 349
308 308 309 309 309 309 310 316 321 325 322 311 294 247 200 176 70 36 22 359 354 332 308 217 289 338 310 308 309 10 259 238 75 189 85 81 54 92 80 341 39 322 333 324 43 264 55 308 123 121 95 24 85 353 309 353 107 170 150 137 121 95 89 96 78 101 120 121 111 104 117 118 110 99 92 129 172 177 97 77 81 111 142 250 32 350 67
305 306 305 307 306 306 307 311 316 321 309 284 270 319 44 14 325 322 332 326 317 282 243 308 280 281 323 300 328 326 304 335 195 119 72 68 30 2 115 298 281 50 43 344 314 7 249 268 78 157 143 231 111 130 267 281 163 157 158 124 123 123 124 101 98 101 98 125 132 151 128 78 65 112 150 116 77 65 82 82 26 329 127 129 109 47 39
303 305 303 304 304 304 302 304 304 302 285 288 294 281 268 265 267 269 282 282 258 248 275 282 271 87 251 343 330 307 112 321 308 57 6 48 86 337 282 58 20 83 35 50 311 252 322 33 47 97 21 156 91 202 186 233 155 155 142 126 130 137 127 129 127 135 126 156 131 175 162 142 140 123 114 94 86 77 72 65 38 352 70 93 69 48 43
300 301 302 301 300 300 300 299 297 288 273 265 296 200 210 220 236 238 240 264 272 268 257 248 213 197 287 93 289 302 347 185 356 303 218 354 79 124 303 192 203 121 211 146 308 321 198 61 241 100 43 257 188 58 300 130 150 140 135 138 138 128 127 117 116 116 119 102 75 82 104 124 119 110 115 129 138 127 144 183 69 37 22 41 63 57 21
301 298 299 300 297 297 298 292 294 246 248 244 240 41 66 148 149 158 168 235 224 188 196 225 265 285 245 173 254 268 18 359 204 330 293 180 81 305 84 179 19 356 306 8 311 218 301 218 154 124 220 146 137 170 214 163 171 147 149 147 149 133 131 141 170 142 115 98 93 109 120 131 130 145 160 169 152 146 146 109 121 99 51 35 54 41 24
302 302 301 299 297 293 288 251 211 251 233 244 75 127 169 163 112 174 196 226 272 327 216 203 151 230 245 255 213 1 19 283 153 168 224 68 300 105 39 326 273 214 121 167 273 174 211 38 88 261 180 162 216 185 187 161 165 169 163 162 160 155 167 167 150 134 129 152 146 155 152 159 180 175 145 143 161 175 161 139 120 95 94 73 53 35 37
301 303 303 296 285 200 239 234 181 212 260 70 122 129 156 243 207 222 187 218 183 212 280 324 242 208 184 202 24 234 124 293 168 196 180 187 216 118 202 100 246 77 329 231 207 243 250 28 250 250 227 240 219 190 183 169 167 169 168 160 156 162 154 148 142 133 151 162 134 128 136 199 180 106 126 124 107 99 115 127 110 106 87 90 91 81 50
303 304 301 283 237 248 210 197 189 350 79 87 112 112 197 176 201 171 170 227 178 165 217 199 257 288 65 135 204 124 128 249 44 226 112 3 29 256 172 245 228 164 236 203 232 176 108 107 214 218 254 242 262 186 189 168 160 160 150 153 158 156 147 146 144 137 146 163 155 160 173 199 222 160 162 186 181 180 161 119 122 131 164 191 166 149 148
294 281 243 241 258 278 37 6 2 360 290 180 199 279 182 201 203 207 181 194 137 200 190 224 233 223 175 190 156 153 212 114 145 157 213 295 105 328 339 244 43 43 300 247 293 70 224 190 217 206 253 234 270 193 158 140 141 146 140 150 149 149 145 147 150 153 159 172 177 174 170 187 207 155 145 305 16 119 131 135 121 85 76 76 74 63 56
233 248 233 206 220 333 328 219 71 355 229 246 183 263 247 188 225 217 146 175 184 226 163 214 214 230 208 208 185 195 181 179 179 186 165 348 240 166 214 285 69 310 262 269 252 105 244 271 205 197 241 209 215 161 149 142 139 142 134 144 145 143 146 146 149 147 144 125 120 139 144 121 123 126 123 96 74 43 20 36 62 57 52 41 36 50 41
211 259 277 340 4 326 312 317 263 231 245 221 209 208 316 231 220 272 194 207 197 210 180 239 163 213 219 224 160 186 156 236 145 136 126 191 190 101 148 215 97 270 275 258 115 192 212 242 262 245 256 207 177 168 156 151 150 148 143 146 147 144 151 150 150 150 159 139 123 90 64 79 89 79 73 67 59 53 55 48 32 35 40 40 36 32 27
359 269 308 298 276 275 277 242 226 224 205 301 279 212 205 258 198 202 248 244 193 212 174 198 211 207 203 194 195 145 163 203 197 181 166 206 154 187 232 138 91 230 257 193 147 201 208 245 250 258 267 241 171 164 155 155 156 153 152 147 145 146 154 153 154 151 148 127 125 115 125 122 98 81 77 77 77 62 51 35 46 32 26 22 15 358 318
299 269 207 268 243 219 197 253 192 231 130 140 69 341 280 239 220 237 186 204 265 260 107 185 235 143 84 144 85 44 101 152 198 156 193 186 87 250 229 220 211 221 217 146 189 243 218 229 240 308 343 247 166 164 170 164 159 154 152 146 145 149 151 147 139 132 124 115 118 119 137 131 123 130 132 118 120 115 130 164 249 298 55 56 47 353 313
273 243 223 220 234 240 134 272 201 104 347 190 152 211 208 225 216 195 243 198 169 203 168 195 165 161 114 266 126 126 110 53 334 67 268 151 148 182 198 225 219 284 63 230 216 231 241 111 210 267 286 346 23 64 87 120 143 142 138 139 141 141 136 126 121 125 122 116 101 92 78 71 83 85 74 76 83 85 75 44 80 75 81 290 275 265 320
302 228 232 276 43 282 59 318 293 160 208 198 229 245 223 229 202 202 218 324 299 18 357 197 111 156 146 315 89 63 24 103 19 264 231 175 224 201 216 272 12 354 260 259 257 253 243 208 300 337 7 27 40 48 49 39 42 70 96 101 111 133 131 133 135 134 126 132 136 122 124 136 117 108 106 94 96 98 99 121 96 290 249 133 66 331 319
242 234 148 76 328 302 173 252 137 218 242 226 219 222 245 254 279 70 65 1 25 64 67 340 45 77 81 5 72 116 111 129 152 165 11 13 348 246 350 340 290 279 268 247 254 253 35 41 325 329 17 25 359 46 85 114 109 114 124 139 170 154 128 132 132 137 151 161 138 148 130 104 109 106 107 122 151 128 163 205 152 179 2 334 275 55 51
268 275 240 126 125 232 196 234 217 213 247 227 232 239 247 241 144 147 107 76 84 343 96 145 133 217 127 134 105 37 80 91 205 90 343 179 215 346 241 305 233 202 231 241 243 96 133 195 6 315 114 107 295 291 67 82 88 83 66 43 4 120 125 124 138 139 138 122 82 80 92 107 108 123 135 112 94 100 326 314 42 50 58 39 24 94 91
283 262 261 143 227 199 218 230 249 251 238 254 261 249 242 125 71 47 327 122 172 169 76 29 23 90 84 10 334 135 112 3 187 108 21 81 37 291 285 235 235 234 226 252 94 90 122 66 102 343 348 11 77 77 75 66 58 51 35 22 54 356 124 129 148 94 85 97 108 115 120 120 128 107 101 109 182 246 180 120 107 48 334 302 294 20 315
271 307 298 247 236 255 260 242 226 241 248 236 237 235 258 248 233 128 63 19 213 88 112 125 145 300 75 258 315 123 152 137 233 170 113 150 199 214 198 241 228 233 103 75 124 118 95 91 46 47 36 26 52 57 67 84 100 105 137 85 122 123 321 308 148 127 122 113 111 120 126 131 126 119 91 84 72 53 43 29 20 33 331 305 298 287 298
259 278 251 271 295 272 262 268 264 259 246 240 208 234 115 287 107 76 347 285 80 102 94 72 80 245 132 219 103 282 167 168 206 138 168 211 201 307 249 261 275 329 57 43 85 145 118 120 116 127 125 95 89 101 95 77 93 88 81 83 32 75 211 253 134 109 119 130 139 139 130 120 106 103 101 94 113 156 100 29 35 21 16 41 33 25 15
238 219 254 248 256 279 323 316 329 334 325 322 323 44 33 56 38 202 201 158 207 58 25 39 18 25 71 40 42 169 247 95 116 185 205 198 187 227 217 289 325 308 81 29 62 84 87 269 150 127 110 97 124 123 117 109 116 113 119 143 178 195 228 224 143 128 124 126 129 125 116 123 121 113 117 119 110 84 47 297 265 302 53 18 333 335 344
269 257 264 265 255 254 255 270 272 267 288 300 329 69 86 86 112 74 316 104 53 86 105 102 142 67 64 169 231 73 28 244 271 96 246 167 138 176 216 198 210 202 162 160 179 203 228 216 255 139 147 142 130 140 138 118 112 121 155 173 185 197 196 139 113 125 137 148 142 129 104 105 104 102 100 90 81 48 5 356 30 56 46 353 350 330 298